Skip Page Navigation
NASA JPL Caltech
NASA Logo - Jet Propulsion Laboratory + View the NASA Portal
+ Center for Near-Earth Object Studies
JPL Home Earth Solar System Stars & Galaxies Technology
JPL Solar System Dynamics
BODIES ORBITS EPHEMERIDES TOOLS PHYSICAL DATA DISCOVERY FAQ SITE MAP
IMPORTANT: The SSD Announcement email list is now available. Major changes are coming in the near future, including possible hostname and/or URL changes. To be notified of such changes, subscribe to this email list.

Please visit this page for more details.


JPL Small-Body Database Browser
Search: [ help ]  
2568 Maksutov (1980 GH)
Classification: Main-belt Asteroid          SPK-ID: 2002568
Ephemeris | Orbit Diagram | Orbital Elements | Mission Design | Physical Parameters | Discovery Circumstances ]

[ show orbit diagram ]
Orbital Elements at Epoch 2459000.5 (2020-May-31.0) TDB
Reference: JPL 24 (heliocentric ecliptic J2000)
 Element Value Uncertainty (1-sigma)   Units 
e .188386843208412 3.9534e-08  
a 2.205029336755508 7.7607e-09 au
q 1.7896308208222 8.8982e-08 au
i 8.032567669500626 3.8265e-06 deg
node 87.53972963190321 2.8506e-05 deg
peri 195.0163056263886 3.2275e-05 deg
M 30.44413888712196 1.9486e-05 deg
tp 2458899.360412389648
(2020-Feb-19.86041239)
6.4452e-05 TDB
period 1195.96917077291
3.27
6.3139e-06
1.729e-08
d
yr
n .301011103628487 1.5891e-09 deg/d
Q 2.620427852688817 9.2227e-09 au
  Orbit Determination Parameters
   # obs. used (total)      2095  
   data-arc span      24742 days (67.74 yr)  
   first obs. used      1951-08-13  
   last obs. used      2019-05-10  
   planetary ephem.      DE431  
   SB-pert. ephem.      SB431-N16  
   condition code      0  
   norm. resid. RMS      .49698  
   source      ORB  
   producer      Otto Matic  
   solution date      2019-May-29 21:41:28  

Additional Information
 Earth MOID = .774503 au 
 Jupiter MOID = 2.52096 au 
 T_jup = 3.626 
[ show covariance matrix ]

Ephemeris | Orbit Diagram | Orbital Elements | Mission Design | Physical Parameters | Discovery Circumstances ]

Physical Parameter Table
Parameter Symbol Value Units Sigma Reference Notes
absolute magnitude H 13.5   n/a MPO473800  
diameter diameter 4.644 km 0.024 urn:nasa:pds:neowise_diameters_albedos::2.0[mainbelt] (http://adsabs.harvard.edu/abs/2014ApJ...791..121M)  
rotation period rot_per 7.5930 h n/a LCDB (Rev. 2019-August); Warner et al., 2009 Published Reference List:
[Behrend, R. (2016) Observatoire de Geneve web site, http://obswww.unige.ch/~behrend/page_cou.html]
[Pravec, P.; Wolf, M.; Sarounova, L. (2016) http://www.asu.cas.cz/~ppravec/neo.htm]
[Durech, J.; Hanus, J.; Ali-Lagoa, V. (2018) Astron. Astrophys. 617, A57.]
geometric albedo albedo 0.486   0.047 urn:nasa:pds:neowise_diameters_albedos::2.0[mainbelt] (http://adsabs.harvard.edu/abs/2014ApJ...791..121M)  

2568 Maksutov (1980 GH)          Discovered 1980-Apr-13 by Vavrova, Z. at Klet
Reference: DISCOVERY.DBLast Updated: 2003-08-29

Alternate Designations
 1980 GH = 1951 PC = 1954 KD = 1981 WN1 
Ephemeris | Orbit Diagram | Orbital Elements | Mission Design | Physical Parameters | Discovery Circumstances ]
ABOUT SSD CREDITS/AWARDS PRIVACY/COPYRIGHT GLOSSARY LINKS
FirstGov 2020-Feb-22 07:50 UT
(server date/time)  
NASA Home Page
Site Manager:   Ryan S. Park
Webmaster  Alan B. Chamberlin